MEA418 EDDM-EBBR

Flight info

Callsign MEA418
Flight time N/A
Altitude 32000
Route GIVMI6Q GIVMI Y101 INBED DCT REKDI DCT OSBIT DCT TEKTU DCT TESGA DCT UMUPU T880 BATTY
Aircraft A20N/M-SDE2E3FGHIRWXY/LB1

Departure

Time 2026-04-30 19:44
Airport Munich Airport (EDDM)

Arrival

Time N/A
Airport Brussels Airport (EBBR)
Time Latitude Longitude Altitude Speed Heading
2026-04-30 19:08 48.35369 11.77676 1479 ft 0 kts 263°
2026-04-30 19:28 48.35370 11.77689 1450 ft 1 kts 263°
2026-04-30 19:28 48.35372 11.77716 1487 ft 1 kts 263°
2026-04-30 19:29 48.35372 11.77742 1467 ft 2 kts 295°
2026-04-30 19:29 48.35367 11.77753 1469 ft 2 kts 330°
2026-04-30 19:30 48.35365 11.77755 1469 ft 0 kts 336°
2026-04-30 19:31 48.35425 11.77745 1478 ft 6 kts 356°
2026-04-30 19:32 48.35489 11.77737 1475 ft 12 kts 354°
2026-04-30 19:32 48.35584 11.77722 1471 ft 14 kts 354°
2026-04-30 19:32 48.35649 11.77711 1475 ft 1 kts 354°
2026-04-30 19:32 48.35658 11.77710 1475 ft 0 kts 354°
2026-04-30 19:33 48.35669 11.77708 1470 ft 3 kts 354°
2026-04-30 19:33 48.35692 11.77705 1475 ft 6 kts 355°
2026-04-30 19:33 48.35761 11.77703 1471 ft 13 kts 359°
2026-04-30 19:34 48.35833 11.77697 1465 ft 7 kts 355°
2026-04-30 19:34 48.35894 11.77687 1466 ft 11 kts 354°
2026-04-30 19:34 48.35977 11.77784 1462 ft 0 kts 82°
2026-04-30 19:35 48.35977 11.77786 1462 ft 0 kts 82°
2026-04-30 19:35 48.35978 11.77802 1462 ft 5 kts 90°
2026-04-30 19:35 48.35948 11.77841 1464 ft 5 kts 168°
2026-04-30 19:36 48.35898 11.77851 1469 ft 7 kts 174°
2026-04-30 19:36 48.35842 11.77858 1463 ft 8 kts 176°
2026-04-30 19:36 48.35812 11.77853 1470 ft 0 kts 193°
2026-04-30 19:37 48.35797 11.77840 1468 ft 6 kts 217°
2026-04-30 19:37 48.35776 11.77765 1470 ft 10 kts 271°
2026-04-30 19:38 48.35807 11.77698 1466 ft 8 kts 334°
2026-04-30 19:38 48.35876 11.77689 1465 ft 11 kts
2026-04-30 19:38 48.35960 11.77644 1471 ft 16 kts 298°
2026-04-30 19:38 48.35952 11.77462 1474 ft 20 kts 262°
2026-04-30 19:39 48.35935 11.77260 1470 ft 20 kts 264°
2026-04-30 19:39 48.35936 11.77085 1465 ft 12 kts 294°
2026-04-30 19:39 48.35973 11.77004 1470 ft 11 kts 308°
2026-04-30 19:39 48.35991 11.76963 1471 ft 1 kts 305°
2026-04-30 19:40 48.35995 11.76965 1470 ft 1 kts 354°
2026-04-30 19:40 48.36033 11.76968 1471 ft 5 kts 360°
2026-04-30 19:40 48.36052 11.76967 1475 ft 2 kts 357°
2026-04-30 19:40 48.36078 11.76965 1475 ft 5 kts 357°
2026-04-30 19:41 48.36090 11.76964 1469 ft 0 kts 356°
2026-04-30 19:41 48.36091 11.76964 1469 ft 1 kts 356°
2026-04-30 19:42 48.36122 11.76960 1470 ft 8 kts 355°
2026-04-30 19:42 48.36211 11.76944 1468 ft 16 kts 353°
2026-04-30 19:42 48.36281 11.76976 1468 ft 10 kts 47°
2026-04-30 19:42 48.36302 11.77069 1477 ft 10 kts 83°
2026-04-30 19:43 48.36316 11.77277 1472 ft 54 kts 84°
2026-04-30 19:43 48.36399 11.78339 1470 ft 147 kts 83°
2026-04-30 19:43 48.36541 11.80155 1776 ft 188 kts 83°
2026-04-30 19:44 48.36859 11.84052 3421 ft 198 kts 82°
2026-04-30 19:44 48.37159 11.86246 3943 ft 227 kts 75°
2026-04-30 19:44 48.37756 11.88398 4476 ft 210 kts 63°
2026-04-30 19:44 48.38723 11.90014 4871 ft 214 kts 36°
2026-04-30 19:45 48.40158 11.90582 4987 ft 223 kts
2026-04-30 19:45 48.41652 11.89833 5169 ft 234 kts 330°
2026-04-30 19:45 48.42864 11.88001 5537 ft 260 kts 311°
2026-04-30 19:45 48.43993 11.85717 5982 ft 279 kts 308°
2026-04-30 19:46 48.45132 11.83377 6610 ft 280 kts 309°
2026-04-30 19:46 48.46318 11.81032 7205 ft 282 kts 309°
2026-04-30 19:46 48.47490 11.78681 7824 ft 288 kts 309°
2026-04-30 19:46 48.48682 11.76241 8421 ft 291 kts 309°
2026-04-30 19:47 48.49933 11.73746 9042 ft 301 kts 310°
2026-04-30 19:47 48.50793 11.72093 9472 ft 305 kts 310°
2026-04-30 19:47 48.52528 11.68723 10390 ft 310 kts 310°
2026-04-30 19:47 48.53854 11.66145 11080 ft 322 kts 311°
2026-04-30 19:48 48.55287 11.63392 11898 ft 337 kts 311°
2026-04-30 19:48 48.56753 11.60610 12744 ft 342 kts 313°
2026-04-30 19:48 48.58264 11.57794 13631 ft 346 kts 313°
2026-04-30 19:48 48.59811 11.54923 14410 ft 361 kts 313°
2026-04-30 19:49 48.61417 11.51934 15133 ft 371 kts 313°
2026-04-30 19:49 48.64723 11.45858 16522 ft 378 kts 315°
2026-04-30 19:49 48.66416 11.42838 17222 ft 381 kts 316°
2026-04-30 19:50 48.68153 11.39849 17863 ft 383 kts 317°
2026-04-30 19:50 48.69986 11.36870 18555 ft 385 kts 320°
2026-04-30 19:50 48.71979 11.34162 19205 ft 384 kts 326°
2026-04-30 19:50 48.74136 11.31774 19848 ft 384 kts 332°
2026-04-30 19:51 48.76391 11.29612 20467 ft 385 kts 334°
2026-04-30 19:51 48.78679 11.27471 21081 ft 388 kts 333°
2026-04-30 19:51 48.80959 11.25334 21647 ft 391 kts 333°
2026-04-30 19:51 48.83307 11.23124 22245 ft 394 kts 333°
2026-04-30 19:52 48.85530 11.20719 22797 ft 401 kts 326°
2026-04-30 19:52 48.87623 11.17868 23411 ft 409 kts 321°
2026-04-30 19:52 48.89617 11.14739 24020 ft 413 kts 320°
2026-04-30 19:52 48.91637 11.11627 24654 ft 416 kts 321°
2026-04-30 19:53 48.93751 11.08592 25175 ft 418 kts 323°
2026-04-30 19:53 48.95919 11.05623 25683 ft 421 kts 324°
2026-04-30 19:53 48.98127 11.02657 26189 ft 424 kts 325°
2026-04-30 19:53 49.00359 10.99696 26754 ft 428 kts 325°
2026-04-30 19:54 49.02630 10.96714 27287 ft 431 kts 326°
2026-04-30 19:54 49.04912 10.93726 27888 ft 435 kts 326°
2026-04-30 19:54 49.07228 10.90829 28473 ft 436 kts 329°
2026-04-30 19:54 49.09518 10.87988 29081 ft 442 kts 326°
2026-04-30 19:55 49.11887 10.84810 29697 ft 446 kts 325°
2026-04-30 19:55 49.14201 10.81642 30238 ft 451 kts 324°